Flag for U.S.A. Weather past 2 weeks in Fresno, California, U.S.A.

Now
56 °F

Fog.


Feels Like: 55 °F
Forecast: 53 / 61 °F
Wind: 6 mph from Southeast

Location: Fresno Air Terminal

Current Time: Dec 21, 2014 at 9:46:53 PM

Latest Report: Dec 21, 2014 at 8:53 PM


Visibility: 4 mi

Pressure: 30.26 "Hg

Humidity: 93%

Dew point: 54 °F

Location of FresnoLocation

Historic Weather in Fresno — Graph

°F

Fresno temperature yesterday

Maximum temperature yesterday: 61 °F (at 1:53 PM)
Minimum temperature yesterday: 51 °F (at 10:53 PM)
Average temperature yesterday: 55 °F

Past Weeks' High & Low Weather Summary

 TemperatureHumidityPressure
High67 °F (Dec 8, 1:53 PM)100% (Dec 8, 11:53 PM)30.33 "Hg (Dec 8, 11:53 PM)
Low40 °F (Dec 15, 12:53 AM)49% (Dec 8, 1:53 PM)29.60 "Hg (Dec 11, 9:53 PM)
Average52 °F84%30.09 "Hg
* Reported Dec 6 8:53 PM — Dec 21 8:53 PM, Fresno, Weather by CustomWeather, © 2014

Note: Actual official high and low records may vary slightly from our data, if they occured in-between our weather recording intervals... More about our weather records

Advertising

Fresno weather history for previous 24 hours

 ConditionsComfort  
Time TempWeatherWind HumidityBarometerVisibility
8:53 PM
Dec 21
56 °FFog.6 mph93%30.26 "Hg4 mi
7:53 PM56 °FFog.6 mph93%30.25 "Hg5 mi
6:53 PM56 °FFog.7 mph93%30.25 "Hg4 mi
5:53 PM57 °FFog.7 mph87%30.24 "Hg6 mi
4:53 PM59 °FMostly cloudy.3 mph81%30.22 "Hg10 mi
3:53 PM59 °FMostly cloudy.7 mph81%30.24 "Hg10 mi
2:53 PM60 °FPartly sunny.12 mph78%30.23 "Hg10 mi
1:53 PM60 °FPartly sunny.8 mph78%30.22 "Hg9 mi
12:53 PM57 °FPartly sunny.No wind83%30.25 "Hg6 mi
11:53 AM54 °FFog.No wind90%30.27 "Hg3 mi
11:02 AM52 °FFog.5 mph97%30.31 "Hg1 mi
10:53 AM51 °FFog.3 mph96%30.31 "Hg1 mi
9:53 AM50 °FFog.3 mph96%30.33 "Hg1 mi
8:53 AM48 °FFog.No wind100%30.31 "Hg0 mi
7:53 AM46 °FFog.No wind100%30.30 "Hg0 mi
6:53 AM46 °FFog.No wind96%30.29 "Hg0 mi
5:53 AM47 °FFog.No wind97%30.27 "Hg0 mi
4:53 AM47 °FFog.3 mph97%30.26 "Hg0 mi
3:53 AM48 °FFog.No wind96%30.27 "Hg0 mi
2:53 AM48 °FFog.No wind100%30.27 "Hg0 mi
2:00 AM49 °FFog.No wind93%30.26 "Hg0 mi
12:53 AM51 °FFog.No wind92%30.25 "Hg5 mi
11:53 PM
Dec 20
51 °FFog.No wind96%30.27 "Hg4 mi
10:53 PM51 °FFog.6 mph96%30.27 "Hg4 mi
9:53 PM54 °FPassing clouds.5 mph90%30.27 "Hg8 mi
Weather by CustomWeather, © 2014

See weather overviewHow to use our weather pages